Time,TemperatureF,DewpointF,PressureIn,WindDirection,WindDirectionDegrees,WindSpeedMPH,WindSpeedGustMPH,Humidity,HourlyPrecipIn,Conditions,Clouds,dailyrainin,SoftwareType,DateUTC
2013-04-25 00:01:00,41.7,35.3,29.99,NNW,333,8.0,27.0,78,0.00,,,0.08,WUHU216DAVISVP2,2013-04-25 04:01:00,
2013-04-25 00:04:00,41.6,34.9,29.99,WNW,291,5.0,27.0,77,0.00,,,0.00,WUHU216DAVISVP2,2013-04-25 04:04:00,
2013-04-25 00:09:00,41.6,35.2,30.00,WSW,250,8.0,26.0,78,0.00,,,0.00,WUHU216DAVISVP2,2013-04-25 04:09:00,
2013-04-25 00:14:00,41.5,35.2,30.01,WNW,302,12.0,26.0,78,0.00,,,0.00,WUHU216DAVISVP2,2013-04-25 04:14:00,
2013-04-25 00:20:00,41.5,35.2,30.01,WNW,285,5.0,24.0,78,0.00,,,0.00,WUHU216DAVISVP2,2013-04-25 04:20:00,
2013-04-25 00:25:00,41.5,34.9,30.02,NW,304,9.0,24.0,77,0.00,,,0.00,WUHU216DAVISVP2,2013-04-25 04:25:00,
2013-04-25 00:30:00,41.6,34.6,30.02,West,273,7.0,24.0,76,0.00,,,0.00,WUHU216DAVISVP2,2013-04-25 04:30:00,
2013-04-25 00:36:00,41.5,34.5,30.03,WNW,293,6.0,24.0,76,0.00,,,0.00,WUHU216DAVISVP2,2013-04-25 04:36:00,
2013-04-25 00:41:00,41.5,34.5,30.03,West,274,10.0,24.0,76,0.00,,,0.00,WUHU216DAVISVP2,2013-04-25 04:41:00,
2013-04-25 00:46:00,41.5,34.5,30.03,WSW,248,4.0,24.0,76,0.00,,,0.00,WUHU216DAVISVP2,2013-04-25 04:46:00,
2013-04-25 00:51:00,41.5,34.5,30.03,West,280,10.0,21.0,76,0.00,,,0.00,WUHU216DAVISVP2,2013-04-25 04:51:00,
2013-04-25 00:57:00,41.4,34.5,30.04,WNW,283,7.0,21.0,76,0.00,,,0.00,WUHU216DAVISVP2,2013-04-25 04:57:00,
2013-04-25 01:02:00,41.3,34.4,30.04,NW,305,11.0,24.0,76,0.00,,,0.00,WUHU216DAVISVP2,2013-04-25 05:02:00,
2013-04-25 01:09:00,41.3,34.0,30.04,NW,304,6.0,24.0,75,0.00,,,0.00,WUHU216DAVISVP2,2013-04-25 05:09:00,
2013-04-25 01:14:00,41.4,34.1,30.05,West,265,11.0,24.0,75,0.00,,,0.00,WUHU216DAVISVP2,2013-04-25 05:14:00,
2013-04-25 01:20:00,41.3,34.4,30.05,West,269,11.0,22.0,76,0.00,,,0.00,WUHU216DAVISVP2,2013-04-25 05:20:00,
2013-04-25 01:25:00,41.3,34.4,30.06,WNW,302,8.0,22.0,76,0.00,,,0.00,WUHU216DAVISVP2,2013-04-25 05:25:00,
2013-04-25 01:31:00,41.2,34.3,30.06,West,278,8.0,22.0,76,0.00,,,0.00,WUHU216DAVISVP2,2013-04-25 05:31:00,
2013-04-25 01:36:00,41.0,34.1,30.06,NW,305,14.0,22.0,76,0.00,,,0.00,WUHU216DAVISVP2,2013-04-25 05:36:00,
2013-04-25 01:41:00,40.9,34.0,30.06,East,93,3.0,21.0,76,0.00,,,0.00,WUHU216DAVISVP2,2013-04-25 05:41:00,
2013-04-25 01:47:00,40.8,34.2,30.07,WNW,290,0.0,18.0,77,0.00,,,0.00,WUHU216DAVISVP2,2013-04-25 05:47:00,
2013-04-25 01:52:00,40.7,33.8,30.07,WNW,284,8.0,16.0,76,0.00,,,0.00,WUHU216DAVISVP2,2013-04-25 05:52:00,
2013-04-25 01:57:00,40.4,33.8,30.07,West,280,14.0,17.0,77,0.00,,,0.00,WUHU216DAVISVP2,2013-04-25 05:57:00,
2013-04-25 02:02:00,40.1,33.5,30.08,NW,308,4.0,19.0,77,0.00,,,0.00,WUHU216DAVISVP2,2013-04-25 06:02:00,
2013-04-25 02:07:00,39.9,32.9,30.08,West,263,9.0,24.0,76,0.00,,,0.00,WUHU216DAVISVP2,2013-04-25 06:07:00,
2013-04-25 02:13:00,39.9,32.9,30.08,WNW,285,7.0,24.0,76,0.00,,,0.00,WUHU216DAVISVP2,2013-04-25 06:13:00,
2013-04-25 02:18:00,39.8,32.9,30.08,West,280,5.0,24.0,76,0.00,,,0.00,WUHU216DAVISVP2,2013-04-25 06:18:00,
2013-04-25 02:23:00,39.8,32.6,30.08,West,273,5.0,24.0,75,0.00,,,0.00,WUHU216DAVISVP2,2013-04-25 06:23:00,
2013-04-25 02:29:00,39.8,32.6,30.08,West,263,11.0,22.0,75,0.00,,,0.00,WUHU216DAVISVP2,2013-04-25 06:29:00,
2013-04-25 02:34:00,39.7,32.5,30.08,WNW,287,6.0,22.0,75,0.00,,,0.00,WUHU216DAVISVP2,2013-04-25 06:34:00,
2013-04-25 02:39:00,39.6,32.4,30.08,WNW,291,8.0,22.0,75,0.00,,,0.00,WUHU216DAVISVP2,2013-04-25 06:39:00,
2013-04-25 02:44:00,39.5,32.6,30.08,WNW,294,5.0,14.0,76,0.00,,,0.00,WUHU216DAVISVP2,2013-04-25 06:44:00,
2013-04-25 02:50:00,39.5,32.6,30.08,NW,317,2.0,13.0,76,0.00,,,0.00,WUHU216DAVISVP2,2013-04-25 06:50:00,
2013-04-25 02:55:00,39.5,32.6,30.08,WNW,295,4.0,13.0,76,0.00,,,0.00,WUHU216DAVISVP2,2013-04-25 06:55:00,
2013-04-25 03:00:00,39.5,32.3,30.08,WNW,287,6.0,16.0,75,0.00,,,0.00,WUHU216DAVISVP2,2013-04-25 07:00:00,
2013-04-25 03:06:00,39.4,32.5,30.09,WNW,288,4.0,16.0,76,0.00,,,0.00,WUHU216DAVISVP2,2013-04-25 07:06:00,
2013-04-25 03:11:00,39.5,32.3,30.09,West,269,9.0,16.0,75,0.00,,,0.00,WUHU216DAVISVP2,2013-04-25 07:11:00,
2013-04-25 03:16:00,39.5,32.3,30.09,NNE,15,4.0,17.0,75,0.00,,,0.00,WUHU216DAVISVP2,2013-04-25 07:16:00,
2013-04-25 03:29:00,39.4,32.2,30.10,WNW,298,9.0,15.0,75,0.00,,,0.00,WUHU216DAVISVP2,2013-04-25 07:29:00,
2013-04-25 03:30:00,39.4,32.2,30.10,West,274,5.0,15.0,75,0.00,,,0.00,WUHU216DAVISVP2,2013-04-25 07:30:00,
2013-04-25 03:31:00,39.4,32.2,30.10,WNW,297,7.0,15.0,75,0.00,,,0.00,WUHU216DAVISVP2,2013-04-25 07:31:00,
2013-04-25 03:32:00,39.4,32.2,30.10,SE,129,3.0,15.0,75,0.00,,,0.00,WUHU216DAVISVP2,2013-04-25 07:32:00,
2013-04-25 03:33:00,39.4,32.1,30.10,West,264,3.0,15.0,75,0.00,,,0.00,WUHU216DAVISVP2,2013-04-25 07:33:00,
2013-04-25 03:34:00,39.4,32.5,30.10,WSW,258,11.0,15.0,76,0.00,,,0.00,WUHU216DAVISVP2,2013-04-25 07:34:00,
2013-04-25 03:35:00,39.4,32.1,30.10,WNW,293,5.0,15.0,75,0.00,,,0.00,WUHU216DAVISVP2,2013-04-25 07:35:00,
2013-04-25 03:36:00,39.3,32.0,30.10,WSW,255,6.0,15.0,75,0.00,,,0.00,WUHU216DAVISVP2,2013-04-25 07:36:00,
2013-04-25 03:37:00,39.3,32.0,30.10,NW,305,5.0,15.0,75,0.00,,,0.00,WUHU216DAVISVP2,2013-04-25 07:37:00,
2013-04-25 03:38:00,39.3,32.0,30.10,WNW,288,5.0,15.0,75,0.00,,,0.00,WUHU216DAVISVP2,2013-04-25 07:38:00,
2013-04-25 03:39:00,39.3,32.0,30.10,WNW,298,10.0,15.0,75,0.00,,,0.00,WUHU216DAVISVP2,2013-04-25 07:39:00,
2013-04-25 03:40:00,39.3,32.0,30.10,NNW,337,5.0,15.0,75,0.00,,,0.00,WUHU216DAVISVP2,2013-04-25 07:40:00,
2013-04-25 03:41:00,39.3,32.0,30.10,WNW,286,10.0,15.0,75,0.00,,,0.00,WUHU216DAVISVP2,2013-04-25 07:41:00,
2013-04-25 03:42:00,39.3,32.0,30.10,WNW,284,6.0,15.0,75,0.00,,,0.00,WUHU216DAVISVP2,2013-04-25 07:42:00,
2013-04-25 03:43:00,39.3,32.1,30.10,WNW,288,6.0,15.0,75,0.00,,,0.00,WUHU216DAVISVP2,2013-04-25 07:43:00,
2013-04-25 03:44:00,39.3,32.0,30.10,West,264,4.0,15.0,75,0.00,,,0.00,WUHU216DAVISVP2,2013-04-25 07:44:00,
2013-04-25 03:45:00,39.3,32.1,30.10,West,281,2.0,15.0,75,0.00,,,0.00,WUHU216DAVISVP2,2013-04-25 07:45:00,
2013-04-25 03:46:00,39.4,32.2,30.10,NW,316,4.0,14.0,75,0.00,,,0.00,WUHU216DAVISVP2,2013-04-25 07:46:00,
2013-04-25 03:47:00,39.4,32.2,30.10,West,279,6.0,14.0,75,0.00,,,0.00,WUHU216DAVISVP2,2013-04-25 07:47:00,
2013-04-25 03:48:00,39.3,32.1,30.10,North,350,5.0,14.0,75,0.00,,,0.00,WUHU216DAVISVP2,2013-04-25 07:48:00,
2013-04-25 03:49:00,39.3,32.1,30.10,West,280,5.0,14.0,75,0.00,,,0.00,WUHU216DAVISVP2,2013-04-25 07:49:00,
2013-04-25 03:50:00,39.3,32.1,30.11,NW,309,10.0,16.0,75,0.00,,,0.00,WUHU216DAVISVP2,2013-04-25 07:50:00,
2013-04-25 03:51:00,39.4,31.9,30.11,West,263,7.0,16.0,74,0.00,,,0.00,WUHU216DAVISVP2,2013-04-25 07:51:00,
2013-04-25 03:52:00,39.4,31.9,30.11,WNW,300,7.0,16.0,74,0.00,,,0.00,WUHU216DAVISVP2,2013-04-25 07:52:00,
2013-04-25 03:53:00,39.4,31.9,30.11,WNW,284,6.0,16.0,74,0.00,,,0.00,WUHU216DAVISVP2,2013-04-25 07:53:00,
2013-04-25 03:54:00,39.3,31.8,30.11,West,277,7.0,16.0,74,0.00,,,0.00,WUHU216DAVISVP2,2013-04-25 07:54:00,
2013-04-25 03:55:00,39.4,31.9,30.11,WNW,298,4.0,17.0,74,0.00,,,0.00,WUHU216DAVISVP2,2013-04-25 07:55:00,
2013-04-25 03:56:00,39.4,31.9,30.11,NW,308,4.0,17.0,74,0.00,,,0.00,WUHU216DAVISVP2,2013-04-25 07:56:00,
2013-04-25 03:57:00,39.4,31.9,30.11,WNW,300,4.0,17.0,74,0.00,,,0.00,WUHU216DAVISVP2,2013-04-25 07:57:00,
2013-04-25 03:58:00,39.4,31.9,30.11,West,262,4.0,17.0,74,0.00,,,0.00,WUHU216DAVISVP2,2013-04-25 07:58:00,
2013-04-25 03:59:00,39.4,31.9,30.11,WNW,288,8.0,17.0,74,0.00,,,0.00,WUHU216DAVISVP2,2013-04-25 07:59:00,
2013-04-25 04:00:00,39.4,31.9,30.11,WNW,302,4.0,17.0,74,0.00,,,0.00,WUHU216DAVISVP2,2013-04-25 08:00:00,
2013-04-25 04:01:00,39.4,31.9,30.11,NW,312,5.0,17.0,74,0.00,,,0.00,WUHU216DAVISVP2,2013-04-25 08:01:00,
2013-04-25 04:02:00,39.4,31.9,30.11,NNW,341,4.0,17.0,74,0.00,,,0.00,WUHU216DAVISVP2,2013-04-25 08:02:00,
2013-04-25 04:03:00,39.4,31.9,30.11,NW,326,3.0,17.0,74,0.00,,,0.00,WUHU216DAVISVP2,2013-04-25 08:03:00,
2013-04-25 04:04:00,39.4,32.2,30.11,West,274,10.0,17.0,75,0.00,,,0.00,WUHU216DAVISVP2,2013-04-25 08:04:00,
2013-04-25 04:05:00,39.4,31.9,30.11,WNW,283,5.0,17.0,74,0.00,,,0.00,WUHU216DAVISVP2,2013-04-25 08:05:00,
2013-04-25 04:06:00,39.4,31.9,30.12,West,267,5.0,17.0,74,0.00,,,0.00,WUHU216DAVISVP2,2013-04-25 08:06:00,
2013-04-25 04:07:00,39.4,31.9,30.11,NW,313,2.0,17.0,74,0.00,,,0.00,WUHU216DAVISVP2,2013-04-25 08:07:00,
2013-04-25 04:08:00,39.4,32.2,30.11,WNW,297,4.0,17.0,75,0.00,,,0.00,WUHU216DAVISVP2,2013-04-25 08:08:00,
2013-04-25 04:09:00,39.4,32.2,30.12,WNW,288,8.0,17.0,75,0.00,,,0.00,WUHU216DAVISVP2,2013-04-25 08:09:00,
2013-04-25 04:10:00,39.4,31.9,30.11,NNW,327,6.0,17.0,74,0.00,,,0.00,WUHU216DAVISVP2,2013-04-25 08:10:00,
2013-04-25 04:11:00,39.4,31.9,30.12,WNW,285,4.0,17.0,74,0.00,,,0.00,WUHU216DAVISVP2,2013-04-25 08:11:00,
2013-04-25 04:12:00,39.4,31.9,30.12,NW,316,4.0,17.0,74,0.00,,,0.00,WUHU216DAVISVP2,2013-04-25 08:12:00,
2013-04-25 04:13:00,39.4,31.9,30.12,NW,325,5.0,13.0,74,0.00,,,0.00,WUHU216DAVISVP2,2013-04-25 08:13:00,
2013-04-25 04:14:00,39.3,31.8,30.12,NNW,338,4.0,13.0,74,0.00,,,0.00,WUHU216DAVISVP2,2013-04-25 08:14:00,
2013-04-25 04:15:00,39.4,31.9,30.12,WNW,302,5.0,13.0,74,0.00,,,0.00,WUHU216DAVISVP2,2013-04-25 08:15:00,
2013-04-25 04:16:00,39.4,32.2,30.12,WNW,302,4.0,13.0,75,0.00,,,0.00,WUHU216DAVISVP2,2013-04-25 08:16:00,
2013-04-25 04:17:00,39.4,32.2,30.12,West,271,8.0,13.0,75,0.00,,,0.00,WUHU216DAVISVP2,2013-04-25 08:17:00,
2013-04-25 04:18:00,39.3,31.8,30.12,NW,321,3.0,13.0,74,0.00,,,0.00,WUHU216DAVISVP2,2013-04-25 08:18:00,
2013-04-25 04:19:00,39.4,31.9,30.12,WNW,301,11.0,13.0,74,0.00,,,0.00,WUHU216DAVISVP2,2013-04-25 08:19:00,
2013-04-25 04:20:00,39.4,31.9,30.12,NW,311,9.0,13.0,74,0.00,,,0.00,WUHU216DAVISVP2,2013-04-25 08:20:00,
2013-04-25 04:21:00,39.4,31.9,30.12,West,281,6.0,13.0,74,0.00,,,0.00,WUHU216DAVISVP2,2013-04-25 08:21:00,
2013-04-25 04:22:00,39.4,31.8,30.12,WNW,291,10.0,13.0,74,0.00,,,0.00,WUHU216DAVISVP2,2013-04-25 08:22:00,
2013-04-25 04:23:00,39.4,31.8,30.12,West,278,8.0,17.0,74,0.00,,,0.00,WUHU216DAVISVP2,2013-04-25 08:23:00,
2013-04-25 04:24:00,39.4,31.8,30.12,WNW,290,7.0,17.0,74,0.00,,,0.00,WUHU216DAVISVP2,2013-04-25 08:24:00,
2013-04-25 04:25:00,39.4,31.8,30.12,NW,321,3.0,17.0,74,0.00,,,0.00,WUHU216DAVISVP2,2013-04-25 08:25:00,
2013-04-25 04:26:00,39.4,31.8,30.12,NW,309,5.0,17.0,74,0.00,,,0.00,WUHU216DAVISVP2,2013-04-25 08:26:00,
2013-04-25 04:27:00,39.4,31.8,30.12,WNW,297,5.0,17.0,74,0.00,,,0.00,WUHU216DAVISVP2,2013-04-25 08:27:00,
2013-04-25 04:28:00,39.4,31.8,30.12,West,276,7.0,17.0,74,0.00,,,0.00,WUHU216DAVISVP2,2013-04-25 08:28:00,
2013-04-25 04:29:00,39.4,31.8,30.12,NW,311,14.0,18.0,74,0.00,,,0.00,WUHU216DAVISVP2,2013-04-25 08:29:00,
2013-04-25 04:30:00,39.4,31.5,30.12,WNW,293,9.0,18.0,73,0.00,,,0.00,WUHU216DAVISVP2,2013-04-25 08:30:00,
2013-04-25 04:31:00,39.4,31.9,30.12,WNW,288,5.0,18.0,74,0.00,,,0.00,WUHU216DAVISVP2,2013-04-25 08:31:00,
2013-04-25 04:32:00,39.4,31.9,30.12,NW,307,4.0,18.0,74,0.00,,,0.00,WUHU216DAVISVP2,2013-04-25 08:32:00,
2013-04-25 04:33:00,39.4,31.9,30.12,NNW,329,6.0,18.0,74,0.00,,,0.00,WUHU216DAVISVP2,2013-04-25 08:33:00,
2013-04-25 04:34:00,39.4,31.9,30.13,WNW,284,7.0,18.0,74,0.00,,,0.00,WUHU216DAVISVP2,2013-04-25 08:34:00,
2013-04-25 04:35:00,39.3,31.8,30.13,NNW,332,5.0,18.0,74,0.00,,,0.00,WUHU216DAVISVP2,2013-04-25 08:35:00,
2013-04-25 04:36:00,39.4,31.9,30.13,NW,313,5.0,18.0,74,0.00,,,0.00,WUHU216DAVISVP2,2013-04-25 08:36:00,
2013-04-25 04:37:00,39.4,31.9,30.13,WNW,290,5.0,18.0,74,0.00,,,0.00,WUHU216DAVISVP2,2013-04-25 08:37:00,
2013-04-25 04:38:00,39.3,31.8,30.13,West,274,5.0,18.0,74,0.00,,,0.00,WUHU216DAVISVP2,2013-04-25 08:38:00,
2013-04-25 04:39:00,39.4,31.9,30.13,NNW,336,5.0,18.0,74,0.00,,,0.00,WUHU216DAVISVP2,2013-04-25 08:39:00,
2013-04-25 04:40:00,39.4,31.9,30.13,NW,326,9.0,18.0,74,0.00,,,0.00,WUHU216DAVISVP2,2013-04-25 08:40:00,
2013-04-25 04:41:00,39.3,31.8,30.13,WNW,302,11.0,18.0,74,0.00,,,0.00,WUHU216DAVISVP2,2013-04-25 08:41:00,
2013-04-25 04:42:00,39.4,31.9,30.13,NNW,336,6.0,18.0,74,0.00,,,0.00,WUHU216DAVISVP2,2013-04-25 08:42:00,
2013-04-25 04:43:00,39.3,31.8,30.13,WNW,287,8.0,18.0,74,0.00,,,0.00,WUHU216DAVISVP2,2013-04-25 08:43:00,
2013-04-25 04:44:00,39.3,31.8,30.13,WNW,301,9.0,18.0,74,0.00,,,0.00,WUHU216DAVISVP2,2013-04-25 08:44:00,
2013-04-25 04:45:00,39.3,31.8,30.13,WNW,302,3.0,18.0,74,0.00,,,0.00,WUHU216DAVISVP2,2013-04-25 08:45:00,
2013-04-25 04:46:00,39.3,32.1,30.13,WNW,298,9.0,18.0,75,0.00,,,0.00,WUHU216DAVISVP2,2013-04-25 08:46:00,
2013-04-25 04:47:00,39.3,32.1,30.13,WSW,253,10.0,16.0,75,0.00,,,0.00,WUHU216DAVISVP2,2013-04-25 08:47:00,
2013-04-25 04:48:00,39.3,31.8,30.13,NW,305,11.0,18.0,74,0.00,,,0.00,WUHU216DAVISVP2,2013-04-25 08:48:00,
2013-04-25 04:49:00,39.3,31.8,30.13,WNW,284,6.0,18.0,74,0.00,,,0.00,WUHU216DAVISVP2,2013-04-25 08:49:00,
2013-04-25 04:50:00,39.3,31.8,30.13,WNW,291,4.0,18.0,74,0.00,,,0.00,WUHU216DAVISVP2,2013-04-25 08:50:00,
2013-04-25 04:51:00,39.3,31.8,30.13,NW,307,5.0,18.0,74,0.00,,,0.00,WUHU216DAVISVP2,2013-04-25 08:51:00,
2013-04-25 04:52:00,39.3,31.8,30.13,WNW,288,7.0,18.0,74,0.00,,,0.00,WUHU216DAVISVP2,2013-04-25 08:52:00,
2013-04-25 04:53:00,39.3,32.1,30.13,WNW,297,3.0,18.0,75,0.00,,,0.00,WUHU216DAVISVP2,2013-04-25 08:53:00,
2013-04-25 04:54:00,39.3,32.1,30.13,West,277,5.0,18.0,75,0.00,,,0.00,WUHU216DAVISVP2,2013-04-25 08:54:00,
2013-04-25 04:57:00,39.3,31.8,30.13,North,357,10.0,18.0,74,0.00,,,0.00,WUHU216DAVISVP2,2013-04-25 08:57:00,
2013-04-25 05:02:00,39.3,31.8,30.13,NW,323,6.0,18.0,74,0.00,,,0.00,WUHU216DAVISVP2,2013-04-25 09:02:00,
2013-04-25 05:07:00,39.2,32.0,30.14,West,276,6.0,18.0,75,0.00,,,0.00,WUHU216DAVISVP2,2013-04-25 09:07:00,
2013-04-25 05:12:00,39.2,32.0,30.14,West,260,5.0,16.0,75,0.00,,,0.00,WUHU216DAVISVP2,2013-04-25 09:12:00,
2013-04-25 05:18:00,39.1,32.2,30.14,WNW,293,2.0,16.0,76,0.00,,,0.00,WUHU216DAVISVP2,2013-04-25 09:18:00,
2013-04-25 05:23:00,39.0,32.1,30.14,NW,325,2.0,16.0,76,0.00,,,0.00,WUHU216DAVISVP2,2013-04-25 09:23:00,
2013-04-25 05:28:00,38.9,32.0,30.15,NW,310,4.0,13.0,76,0.00,,,0.00,WUHU216DAVISVP2,2013-04-25 09:28:00,
2013-04-25 05:33:00,38.9,31.7,30.15,WSW,238,1.0,12.0,75,0.00,,,0.00,WUHU216DAVISVP2,2013-04-25 09:33:00,
2013-04-25 05:38:00,38.8,31.9,30.16,WSW,243,1.0,12.0,76,0.00,,,0.00,WUHU216DAVISVP2,2013-04-25 09:38:00,
2013-04-25 05:44:00,38.8,31.9,30.16,WNW,293,6.0,12.0,76,0.00,,,0.00,WUHU216DAVISVP2,2013-04-25 09:44:00,
2013-04-25 05:49:00,38.8,31.9,30.16,WSW,246,4.0,14.0,76,0.00,,,0.00,WUHU216DAVISVP2,2013-04-25 09:49:00,
2013-04-25 05:54:00,38.7,31.8,30.16,NW,315,6.0,14.0,76,0.00,,,0.00,WUHU216DAVISVP2,2013-04-25 09:54:00,
2013-04-25 06:00:00,38.6,32.1,30.17,NW,304,7.0,14.0,77,0.00,,,0.00,WUHU216DAVISVP2,2013-04-25 10:00:00,
2013-04-25 06:07:00,38.4,32.1,30.17,WNW,287,3.0,14.0,78,0.00,,,0.00,WUHU216DAVISVP2,2013-04-25 10:07:00,
2013-04-25 06:12:00,38.1,32.2,30.17,West,259,1.0,13.0,79,0.00,,,0.00,WUHU216DAVISVP2,2013-04-25 10:12:00,
2013-04-25 06:17:00,38.0,32.1,30.17,West,277,3.0,9.0,79,0.00,,,0.00,WUHU216DAVISVP2,2013-04-25 10:17:00,
2013-04-25 06:23:00,37.9,32.3,30.18,WSW,238,1.0,7.0,80,0.00,,,0.00,WUHU216DAVISVP2,2013-04-25 10:23:00,
2013-04-25 06:28:00,37.9,32.3,30.18,West,260,5.0,8.0,80,0.00,,,0.00,WUHU216DAVISVP2,2013-04-25 10:28:00,
2013-04-25 06:34:00,37.9,32.3,30.19,WSW,240,2.0,8.0,80,0.00,,,0.00,WUHU216DAVISVP2,2013-04-25 10:34:00,
2013-04-25 06:39:00,37.8,32.2,30.19,SW,231,4.0,7.0,80,0.00,,,0.00,WUHU216DAVISVP2,2013-04-25 10:39:00,
2013-04-25 06:44:00,37.8,32.5,30.19,SW,218,1.0,7.0,81,0.00,,,0.00,WUHU216DAVISVP2,2013-04-25 10:44:00,
2013-04-25 06:50:00,37.7,32.4,30.19,WSW,239,3.0,5.0,81,0.00,,,0.00,WUHU216DAVISVP2,2013-04-25 10:50:00,
2013-04-25 06:55:00,37.6,32.3,30.19,WSW,243,5.0,5.0,81,0.00,,,0.00,WUHU216DAVISVP2,2013-04-25 10:55:00,
2013-04-25 07:01:00,37.9,32.6,30.20,WSW,252,2.0,5.0,81,0.00,,,0.00,WUHU216DAVISVP2,2013-04-25 11:01:00,
2013-04-25 07:06:00,38.1,32.8,30.20,WSW,252,2.0,5.0,81,0.00,,,0.00,WUHU216DAVISVP2,2013-04-25 11:06:00,
2013-04-25 07:11:00,38.6,33.0,30.21,West,274,4.0,6.0,80,0.00,,,0.00,WUHU216DAVISVP2,2013-04-25 11:11:00,
2013-04-25 07:17:00,38.9,33.3,30.21,WSW,252,3.0,6.0,80,0.00,,,0.00,WUHU216DAVISVP2,2013-04-25 11:17:00,
2013-04-25 07:23:00,39.3,33.4,30.21,WSW,240,2.0,6.0,79,0.00,,,0.00,WUHU216DAVISVP2,2013-04-25 11:23:00,
2013-04-25 07:28:00,39.8,33.5,30.21,West,260,2.0,6.0,78,0.00,,,0.00,WUHU216DAVISVP2,2013-04-25 11:28:00,
2013-04-25 07:33:00,40.0,33.7,30.21,WNW,296,3.0,6.0,78,0.00,,,0.00,WUHU216DAVISVP2,2013-04-25 11:33:00,
2013-04-25 07:38:00,40.3,33.7,30.21,WSW,249,4.0,6.0,77,0.00,,,0.00,WUHU216DAVISVP2,2013-04-25 11:38:00,
2013-04-25 07:43:00,40.7,34.1,30.22,SW,233,0.0,6.0,77,0.00,,,0.00,WUHU216DAVISVP2,2013-04-25 11:43:00,
2013-04-25 07:48:00,41.2,33.9,30.22,West,267,0.0,6.0,75,0.00,,,0.00,WUHU216DAVISVP2,2013-04-25 11:48:00,
2013-04-25 07:53:00,41.4,34.1,30.22,NW,325,2.0,6.0,75,0.00,,,0.00,WUHU216DAVISVP2,2013-04-25 11:53:00,
2013-04-25 07:58:00,41.9,34.3,30.22,WSW,252,2.0,4.0,74,0.00,,,0.00,WUHU216DAVISVP2,2013-04-25 11:58:00,
2013-04-25 08:04:00,42.2,34.6,30.22,West,276,3.0,6.0,74,0.00,,,0.00,WUHU216DAVISVP2,2013-04-25 12:04:00,
2013-04-25 08:09:00,42.4,34.4,30.23,West,280,5.0,8.0,73,0.00,,,0.00,WUHU216DAVISVP2,2013-04-25 12:09:00,
2013-04-25 08:15:00,42.6,34.3,30.23,North,354,1.0,8.0,72,0.00,,,0.00,WUHU216DAVISVP2,2013-04-25 12:15:00,
2013-04-25 08:20:00,42.8,34.1,30.23,WNW,284,13.0,13.0,71,0.00,,,0.00,WUHU216DAVISVP2,2013-04-25 12:20:00,
2013-04-25 08:25:00,43.0,34.3,30.22,West,264,3.0,14.0,71,0.00,,,0.00,WUHU216DAVISVP2,2013-04-25 12:25:00,
2013-04-25 08:30:00,43.1,34.1,30.22,WSW,258,5.0,14.0,70,0.00,,,0.00,WUHU216DAVISVP2,2013-04-25 12:30:00,
2013-04-25 08:36:00,43.4,33.6,30.23,West,266,3.0,14.0,68,0.00,,,0.00,WUHU216DAVISVP2,2013-04-25 12:36:00,
2013-04-25 08:42:00,43.5,34.1,30.23,NW,314,4.0,11.0,69,0.00,,,0.00,WUHU216DAVISVP2,2013-04-25 12:42:00,
2013-04-25 08:47:00,43.8,32.5,30.22,NW,326,3.0,13.0,64,0.00,,,0.00,WUHU216DAVISVP2,2013-04-25 12:47:00,
2013-04-25 08:52:00,44.2,33.3,30.22,West,273,8.0,13.0,65,0.00,,,0.00,WUHU216DAVISVP2,2013-04-25 12:52:00,
2013-04-25 08:57:00,44.4,32.7,30.22,West,269,6.0,14.0,63,0.00,,,0.00,WUHU216DAVISVP2,2013-04-25 12:57:00,
2013-04-25 09:02:00,44.4,31.9,30.22,NW,308,8.0,14.0,61,0.00,,,0.00,WUHU216DAVISVP2,2013-04-25 13:02:00,
2013-04-25 09:07:00,44.7,32.6,30.22,NW,325,6.0,14.0,62,0.00,,,0.00,WUHU216DAVISVP2,2013-04-25 13:07:00,
2013-04-25 09:14:00,44.4,32.3,30.22,West,266,5.0,15.0,62,0.00,,,0.00,WUHU216DAVISVP2,2013-04-25 13:14:00,
2013-04-25 09:19:00,44.6,31.2,30.22,NW,307,4.0,15.0,59,0.00,,,0.00,WUHU216DAVISVP2,2013-04-25 13:19:00,
2013-04-25 09:25:00,44.7,32.2,30.22,NNE,30,7.0,15.0,61,0.00,,,0.00,WUHU216DAVISVP2,2013-04-25 13:25:00,
2013-04-25 09:30:00,44.6,31.6,30.23,NW,316,5.0,17.0,60,0.00,,,0.00,WUHU216DAVISVP2,2013-04-25 13:30:00,
2013-04-25 09:35:00,44.7,31.7,30.23,NNW,338,5.0,17.0,60,0.00,,,0.00,WUHU216DAVISVP2,2013-04-25 13:35:00,
2013-04-25 09:41:00,45.1,30.4,30.23,WNW,288,3.0,17.0,56,0.00,,,0.00,WUHU216DAVISVP2,2013-04-25 13:41:00,
2013-04-25 09:47:00,45.6,31.3,30.23,NW,316,5.0,17.0,57,0.00,,,0.00,WUHU216DAVISVP2,2013-04-25 13:47:00,
2013-04-25 09:52:00,45.8,30.6,30.24,WNW,293,4.0,13.0,55,0.00,,,0.00,WUHU216DAVISVP2,2013-04-25 13:52:00,
2013-04-25 09:57:00,46.0,30.8,30.24,WNW,303,5.0,11.0,55,0.00,,,0.00,WUHU216DAVISVP2,2013-04-25 13:57:00,
2013-04-25 10:02:00,46.1,30.9,30.24,NNW,340,5.0,14.0,55,0.00,,,0.00,WUHU216DAVISVP2,2013-04-25 14:02:00,
2013-04-25 10:08:00,46.7,32.3,30.23,ENE,65,1.0,13.0,57,0.00,,,0.00,WUHU216DAVISVP2,2013-04-25 14:08:00,
2013-04-25 10:13:00,46.9,31.1,30.24,NW,310,7.0,13.0,54,0.00,,,0.00,WUHU216DAVISVP2,2013-04-25 14:13:00,
2013-04-25 10:18:00,46.9,30.7,30.24,North,354,7.0,12.0,53,0.00,,,0.00,WUHU216DAVISVP2,2013-04-25 14:18:00,
2013-04-25 10:23:00,47.1,29.4,30.24,NW,323,6.0,12.0,50,0.00,,,0.00,WUHU216DAVISVP2,2013-04-25 14:23:00,
2013-04-25 10:29:00,47.0,30.3,30.24,WSW,253,4.0,12.0,52,0.00,,,0.00,WUHU216DAVISVP2,2013-04-25 14:29:00,
2013-04-25 10:36:00,47.3,29.6,30.24,WNW,294,8.0,12.0,50,0.00,,,0.00,WUHU216DAVISVP2,2013-04-25 14:36:00,
2013-04-25 10:41:00,46.7,29.0,30.24,North,4,2.0,12.0,50,0.00,,,0.00,WUHU216DAVISVP2,2013-04-25 14:41:00,
2013-04-25 10:47:00,47.3,30.6,30.24,NNW,333,3.0,12.0,52,0.00,,,0.00,WUHU216DAVISVP2,2013-04-25 14:47:00,
2013-04-25 10:52:00,47.3,30.6,30.24,North,6,9.0,12.0,52,0.00,,,0.00,WUHU216DAVISVP2,2013-04-25 14:52:00,
2013-04-25 10:57:00,47.1,30.4,30.24,WNW,285,4.0,11.0,52,0.00,,,0.00,WUHU216DAVISVP2,2013-04-25 14:57:00,
2013-04-25 11:02:00,47.9,31.1,30.24,West,266,6.0,12.0,52,0.00,,,0.00,WUHU216DAVISVP2,2013-04-25 15:02:00,
2013-04-25 11:08:00,47.7,29.9,30.25,WNW,290,9.0,12.0,50,0.00,,,0.00,WUHU216DAVISVP2,2013-04-25 15:08:00,
2013-04-25 11:14:00,47.7,29.9,30.25,NW,323,3.0,12.0,50,0.00,,,0.00,WUHU216DAVISVP2,2013-04-25 15:14:00,
2013-04-25 11:19:00,48.5,30.7,30.25,West,266,7.0,12.0,50,0.00,,,0.00,WUHU216DAVISVP2,2013-04-25 15:19:00,
2013-04-25 11:24:00,48.8,30.4,30.25,NNW,334,4.0,12.0,49,0.00,,,0.00,WUHU216DAVISVP2,2013-04-25 15:24:00,
2013-04-25 11:30:00,49.2,29.2,30.24,NW,307,1.0,11.0,46,0.00,,,0.00,WUHU216DAVISVP2,2013-04-25 15:30:00,
2013-04-25 11:35:00,49.5,29.5,30.24,NNW,333,1.0,11.0,46,0.00,,,0.00,WUHU216DAVISVP2,2013-04-25 15:35:00,
2013-04-25 11:41:00,49.3,31.4,30.24,NNW,336,4.0,9.0,50,0.00,,,0.00,WUHU216DAVISVP2,2013-04-25 15:41:00,
2013-04-25 11:46:00,49.2,30.8,30.24,WNW,283,5.0,9.0,49,0.00,,,0.00,WUHU216DAVISVP2,2013-04-25 15:46:00,
2013-04-25 11:51:00,49.3,29.3,30.24,West,280,1.0,9.0,46,0.00,,,0.00,WUHU216DAVISVP2,2013-04-25 15:51:00,
2013-04-25 11:57:00,49.6,29.0,30.24,NW,321,2.0,8.0,45,0.00,,,0.00,WUHU216DAVISVP2,2013-04-25 15:57:00,
2013-04-25 12:02:00,49.7,29.7,30.24,NW,322,3.0,8.0,46,0.00,,,0.00,WUHU216DAVISVP2,2013-04-25 16:02:00,
2013-04-25 12:07:00,49.5,30.6,30.23,West,279,3.0,9.0,48,0.00,,,0.00,WUHU216DAVISVP2,2013-04-25 16:07:00,
2013-04-25 12:12:00,49.3,30.4,30.24,NNW,327,3.0,10.0,48,0.00,,,0.00,WUHU216DAVISVP2,2013-04-25 16:12:00,
2013-04-25 12:18:00,49.6,31.2,30.24,NW,321,4.0,10.0,49,0.00,,,0.00,WUHU216DAVISVP2,2013-04-25 16:18:00,
2013-04-25 12:23:00,49.3,28.7,30.24,NNW,333,2.0,10.0,45,0.00,,,0.00,WUHU216DAVISVP2,2013-04-25 16:23:00,
2013-04-25 12:29:00,49.9,28.7,30.23,WSW,246,0.0,7.0,44,0.00,,,0.00,WUHU216DAVISVP2,2013-04-25 16:29:00,
2013-04-25 12:35:00,50.8,29.0,30.23,NW,314,2.0,7.0,43,0.00,,,0.00,WUHU216DAVISVP2,2013-04-25 16:35:00,
2013-04-25 12:40:00,50.6,28.2,30.23,West,260,6.0,9.0,42,0.00,,,0.00,WUHU216DAVISVP2,2013-04-25 16:40:00,
2013-04-25 12:46:00,50.1,27.7,30.23,East,83,3.0,9.0,42,0.00,,,0.00,WUHU216DAVISVP2,2013-04-25 16:46:00,
2013-04-25 12:51:00,50.2,29.7,30.22,SE,141,5.0,9.0,45,0.00,,,0.00,WUHU216DAVISVP2,2013-04-25 16:51:00,
2013-04-25 12:56:00,51.7,30.5,30.22,South,181,4.0,9.0,44,0.00,,,0.00,WUHU216DAVISVP2,2013-04-25 16:56:00,
2013-04-25 13:01:00,52.6,30.1,30.22,SW,219,5.0,9.0,42,0.00,,,0.00,WUHU216DAVISVP2,2013-04-25 17:01:00,
2013-04-25 13:06:00,53.4,30.9,30.22,SW,217,6.0,10.0,42,0.00,,,0.00,WUHU216DAVISVP2,2013-04-25 17:06:00,
2013-04-25 13:11:00,52.5,30.0,30.22,West,263,7.0,10.0,42,0.00,,,0.00,WUHU216DAVISVP2,2013-04-25 17:11:00,
2013-04-25 13:16:00,52.5,30.0,30.22,WNW,285,2.0,9.0,42,0.00,,,0.00,WUHU216DAVISVP2,2013-04-25 17:16:00,
2013-04-25 13:21:00,52.5,30.6,30.22,WNW,283,3.0,9.0,43,0.00,,,0.00,WUHU216DAVISVP2,2013-04-25 17:21:00,
2013-04-25 13:26:00,53.1,28.1,30.21,NW,314,1.0,7.0,38,0.00,,,0.00,WUHU216DAVISVP2,2013-04-25 17:26:00,
2013-04-25 13:31:00,52.7,28.4,30.21,SSW,212,5.0,9.0,39,0.00,,,0.00,WUHU216DAVISVP2,2013-04-25 17:31:00,
2013-04-25 13:37:00,53.2,30.1,30.21,SE,136,3.0,9.0,41,0.00,,,0.00,WUHU216DAVISVP2,2013-04-25 17:37:00,
2013-04-25 13:43:00,53.1,30.6,30.21,SE,136,1.0,9.0,42,0.00,,,0.00,WUHU216DAVISVP2,2013-04-25 17:43:00,
2013-04-25 13:48:00,53.2,28.2,30.21,ESE,110,5.0,9.0,38,0.00,,,0.00,WUHU216DAVISVP2,2013-04-25 17:48:00,
2013-04-25 13:53:00,53.3,28.9,30.21,West,263,3.0,8.0,39,0.00,,,0.00,WUHU216DAVISVP2,2013-04-25 17:53:00,
2013-04-25 13:59:00,53.6,28.6,30.21,West,266,3.0,8.0,38,0.00,,,0.00,WUHU216DAVISVP2,2013-04-25 17:59:00,
2013-04-25 14:04:00,54.2,28.9,30.21,SSW,204,1.0,7.0,38,0.00,,,0.00,WUHU216DAVISVP2,2013-04-25 18:04:00,
2013-04-25 14:09:00,54.5,29.9,30.21,WSW,255,9.0,11.0,39,0.00,,,0.00,WUHU216DAVISVP2,2013-04-25 18:09:00,
2013-04-25 14:14:00,53.8,27.2,30.21,WSW,252,4.0,13.0,36,0.00,,,0.00,WUHU216DAVISVP2,2013-04-25 18:14:00,
2013-04-25 14:20:00,53.6,27.3,30.21,SE,124,4.0,13.0,36,0.00,,,0.00,WUHU216DAVISVP2,2013-04-25 18:20:00,
2013-04-25 14:25:00,53.3,26.8,30.21,SE,134,1.0,13.0,36,0.00,,,0.00,WUHU216DAVISVP2,2013-04-25 18:25:00,
2013-04-25 14:30:00,53.7,27.1,30.21,SW,228,1.0,12.0,36,0.00,,,0.00,WUHU216DAVISVP2,2013-04-25 18:30:00,
2013-04-25 14:35:00,55.0,27.1,30.20,SE,146,2.0,11.0,34,0.00,,,0.00,WUHU216DAVISVP2,2013-04-25 18:35:00,
2013-04-25 14:41:00,55.3,26.4,30.20,SE,134,1.0,7.0,33,0.00,,,0.00,WUHU216DAVISVP2,2013-04-25 18:41:00,
2013-04-25 14:46:00,56.1,28.1,30.20,WSW,252,4.0,7.0,34,0.00,,,0.00,WUHU216DAVISVP2,2013-04-25 18:46:00,
2013-04-25 14:52:00,56.4,26.1,30.20,WSW,250,2.0,7.0,31,0.00,,,0.00,WUHU216DAVISVP2,2013-04-25 18:52:00,
2013-04-25 14:57:00,55.0,26.4,30.20,WSW,243,6.0,9.0,33,0.00,,,0.00,WUHU216DAVISVP2,2013-04-25 18:57:00,
2013-04-25 15:02:00,55.0,27.8,30.19,SE,135,4.0,9.0,35,0.00,,,0.00,WUHU216DAVISVP2,2013-04-25 19:02:00,
2013-04-25 15:07:00,54.8,29.0,30.20,SSE,167,3.0,9.0,37,0.00,,,0.00,WUHU216DAVISVP2,2013-04-25 19:07:00,
2013-04-25 15:12:00,54.6,28.8,30.20,South,181,5.0,8.0,37,0.00,,,0.00,WUHU216DAVISVP2,2013-04-25 19:12:00,
2013-04-25 15:18:00,55.2,29.4,30.19,SE,145,1.0,8.0,37,0.00,,,0.00,WUHU216DAVISVP2,2013-04-25 19:18:00,
2013-04-25 15:24:00,56.0,29.4,30.19,SW,218,2.0,8.0,36,0.00,,,0.00,WUHU216DAVISVP2,2013-04-25 19:24:00,
2013-04-25 15:29:00,56.2,29.6,30.19,NE,56,4.0,8.0,36,0.00,,,0.00,WUHU216DAVISVP2,2013-04-25 19:29:00,
2013-04-25 15:34:00,55.6,29.0,30.19,ESE,121,4.0,7.0,36,0.00,,,0.00,WUHU216DAVISVP2,2013-04-25 19:34:00,
2013-04-25 15:39:00,55.7,29.1,30.19,ESE,113,1.0,7.0,36,0.00,,,0.00,WUHU216DAVISVP2,2013-04-25 19:39:00,
2013-04-25 15:45:00,56.1,28.8,30.18,NE,56,4.0,7.0,35,0.00,,,0.00,WUHU216DAVISVP2,2013-04-25 19:45:00,
2013-04-25 15:50:00,55.4,29.3,30.18,East,80,5.0,8.0,37,0.00,,,0.00,WUHU216DAVISVP2,2013-04-25 19:50:00,
2013-04-25 15:56:00,55.3,29.3,30.18,SE,125,4.0,9.0,37,0.00,,,0.00,WUHU216DAVISVP2,2013-04-25 19:56:00,
2013-04-25 16:02:00,55.4,28.7,30.18,ESE,122,0.0,9.0,36,0.00,,,0.00,WUHU216DAVISVP2,2013-04-25 20:02:00,
2013-04-25 16:07:00,55.4,28.7,30.17,East,84,5.0,9.0,36,0.00,,,0.00,WUHU216DAVISVP2,2013-04-25 20:07:00,
2013-04-25 16:13:00,55.3,29.9,30.17,ESE,108,6.0,9.0,38,0.00,,,0.00,WUHU216DAVISVP2,2013-04-25 20:13:00,
2013-04-25 16:19:00,55.1,29.1,30.17,East,89,5.0,9.0,37,0.00,,,0.00,WUHU216DAVISVP2,2013-04-25 20:19:00,
2013-04-25 16:24:00,55.5,30.7,30.17,SSW,193,4.0,9.0,39,0.00,,,0.00,WUHU216DAVISVP2,2013-04-25 20:24:00,
2013-04-25 16:29:00,56.0,29.2,30.17,SSE,158,5.0,9.0,36,0.00,,,0.00,WUHU216DAVISVP2,2013-04-25 20:29:00,
2013-04-25 16:35:00,56.4,30.2,30.17,SE,131,3.0,8.0,37,0.00,,,0.00,WUHU216DAVISVP2,2013-04-25 20:35:00,
2013-04-25 16:41:00,55.9,29.8,30.17,SE,126,2.0,9.0,37,0.00,,,0.00,WUHU216DAVISVP2,2013-04-25 20:41:00,
2013-04-25 16:47:00,55.7,28.9,30.17,SE,136,3.0,9.0,36,0.00,,,0.00,WUHU216DAVISVP2,2013-04-25 20:47:00,
2013-04-25 16:52:00,56.0,28.7,30.17,SSW,198,2.0,9.0,35,0.00,,,0.00,WUHU216DAVISVP2,2013-04-25 20:52:00,
2013-04-25 16:57:00,56.6,29.2,30.17,East,95,3.0,9.0,35,0.00,,,0.00,WUHU216DAVISVP2,2013-04-25 20:57:00,
2013-04-25 17:02:00,56.3,28.8,30.17,SE,128,6.0,7.0,35,0.00,,,0.00,WUHU216DAVISVP2,2013-04-25 21:02:00,
2013-04-25 17:07:00,56.1,29.3,30.17,NE,54,4.0,7.0,36,0.00,,,0.00,WUHU216DAVISVP2,2013-04-25 21:07:00,
2013-04-25 17:12:00,56.7,29.8,30.17,East,91,4.0,7.0,36,0.00,,,0.00,WUHU216DAVISVP2,2013-04-25 21:12:00,
2013-04-25 17:17:00,56.8,29.2,30.17,WNW,287,1.0,7.0,35,0.00,,,0.00,WUHU216DAVISVP2,2013-04-25 21:17:00,
2013-04-25 17:23:00,57.9,29.5,30.16,SSW,192,0.0,6.0,34,0.00,,,0.00,WUHU216DAVISVP2,2013-04-25 21:23:00,
2013-04-25 17:28:00,58.6,30.1,30.16,ENE,65,2.0,6.0,34,0.00,,,0.00,WUHU216DAVISVP2,2013-04-25 21:28:00,
2013-04-25 17:33:00,57.4,29.0,30.17,NE,47,2.0,5.0,34,0.00,,,0.00,WUHU216DAVISVP2,2013-04-25 21:33:00,
2013-04-25 17:39:00,57.2,28.9,30.17,SE,135,3.0,5.0,34,0.00,,,0.00,WUHU216DAVISVP2,2013-04-25 21:39:00,
2013-04-25 17:44:00,56.9,28.6,30.17,SE,133,1.0,7.0,34,0.00,,,0.00,WUHU216DAVISVP2,2013-04-25 21:44:00,
2013-04-25 17:49:00,57.2,28.9,30.17,SE,142,2.0,7.0,34,0.00,,,0.00,WUHU216DAVISVP2,2013-04-25 21:49:00,
2013-04-25 17:54:00,56.7,28.4,30.16,SE,141,1.0,6.0,34,0.00,,,0.00,WUHU216DAVISVP2,2013-04-25 21:54:00,
2013-04-25 17:59:00,56.5,28.2,30.17,SE,130,3.0,6.0,34,0.00,,,0.00,WUHU216DAVISVP2,2013-04-25 21:59:00,
2013-04-25 18:06:00,56.1,27.9,30.16,NE,54,3.0,6.0,34,0.00,,,0.00,WUHU216DAVISVP2,2013-04-25 22:06:00,
2013-04-25 18:11:00,55.7,28.2,30.17,NE,44,2.0,6.0,35,0.00,,,0.00,WUHU216DAVISVP2,2013-04-25 22:11:00,
2013-04-25 18:17:00,55.4,28.0,30.17,ENE,60,4.0,7.0,35,0.00,,,0.00,WUHU216DAVISVP2,2013-04-25 22:17:00,
2013-04-25 18:22:00,55.3,27.9,30.17,ENE,68,2.0,7.0,35,0.00,,,0.00,WUHU216DAVISVP2,2013-04-25 22:22:00,
2013-04-25 18:27:00,55.2,27.8,30.17,NE,39,5.0,6.0,35,0.00,,,0.00,WUHU216DAVISVP2,2013-04-25 22:27:00,
2013-04-25 18:33:00,55.4,28.7,30.17,NNE,22,2.0,6.0,36,0.00,,,0.00,WUHU216DAVISVP2,2013-04-25 22:33:00,
2013-04-25 18:39:00,55.6,28.8,30.17,NE,39,2.0,5.0,36,0.00,,,0.00,WUHU216DAVISVP2,2013-04-25 22:39:00,
2013-04-25 18:44:00,55.6,28.1,30.17,North,1,2.0,5.0,35,0.00,,,0.00,WUHU216DAVISVP2,2013-04-25 22:44:00,
2013-04-25 18:49:00,55.4,28.7,30.17,North,349,2.0,5.0,36,0.00,,,0.00,WUHU216DAVISVP2,2013-04-25 22:49:00,
2013-04-25 18:54:00,55.4,28.0,30.17,NNW,345,5.0,5.0,35,0.00,,,0.00,WUHU216DAVISVP2,2013-04-25 22:54:00,
2013-04-25 19:00:00,55.4,28.7,30.17,North,353,3.0,5.0,36,0.00,,,0.00,WUHU216DAVISVP2,2013-04-25 23:00:00,
2013-04-25 19:05:00,55.4,28.7,30.17,NNE,20,3.0,5.0,36,0.00,,,0.00,WUHU216DAVISVP2,2013-04-25 23:05:00,
2013-04-25 19:12:00,55.3,29.3,30.17,NE,47,5.0,6.0,37,0.00,,,0.00,WUHU216DAVISVP2,2013-04-25 23:12:00,
2013-04-25 19:17:00,55.2,29.2,30.18,NE,37,3.0,6.0,37,0.00,,,0.00,WUHU216DAVISVP2,2013-04-25 23:17:00,
2013-04-25 19:24:00,55.2,29.8,30.18,NNW,334,6.0,9.0,38,0.00,,,0.00,WUHU216DAVISVP2,2013-04-25 23:24:00,
2013-04-25 19:29:00,54.5,32.3,30.18,NE,41,11.0,13.0,43,0.00,,,0.00,WUHU216DAVISVP2,2013-04-25 23:29:00,
2013-04-25 19:34:00,53.8,33.4,30.18,NNE,32,8.0,13.0,46,0.00,,,0.00,WUHU216DAVISVP2,2013-04-25 23:34:00,
2013-04-25 19:41:00,53.3,33.0,30.18,NE,49,2.0,12.0,46,0.00,,,0.00,WUHU216DAVISVP2,2013-04-25 23:41:00,
2013-04-25 19:46:00,52.8,32.5,30.18,NE,46,2.0,12.0,46,0.00,,,0.00,WUHU216DAVISVP2,2013-04-25 23:46:00,
2013-04-25 19:51:00,52.6,32.9,30.19,NNE,26,4.0,10.0,47,0.00,,,0.00,WUHU216DAVISVP2,2013-04-25 23:51:00,
2013-04-25 19:56:00,52.6,32.3,30.19,NNW,331,3.0,8.0,46,0.00,,,0.00,WUHU216DAVISVP2,2013-04-25 23:56:00,
2013-04-25 20:01:00,52.6,32.4,30.20,NNW,333,1.0,7.0,46,0.00,,,0.00,WUHU216DAVISVP2,2013-04-26 00:01:00,
2013-04-25 20:06:00,52.6,32.9,30.20,North,1,2.0,6.0,47,0.00,,,0.00,WUHU216DAVISVP2,2013-04-26 00:06:00,
2013-04-25 20:11:00,52.5,32.8,30.20,NNW,342,3.0,6.0,47,0.00,,,0.00,WUHU216DAVISVP2,2013-04-26 00:11:00,
2013-04-25 20:16:00,52.4,32.7,30.21,NNW,335,2.0,6.0,47,0.00,,,0.00,WUHU216DAVISVP2,2013-04-26 00:16:00,
2013-04-25 20:21:00,52.3,33.1,30.23,NE,39,4.0,6.0,48,0.00,,,0.00,WUHU216DAVISVP2,2013-04-26 00:21:00,
2013-04-25 20:26:00,52.1,33.5,30.24,ENE,60,1.0,6.0,49,0.00,,,0.00,WUHU216DAVISVP2,2013-04-26 00:26:00,
2013-04-25 20:31:00,51.7,33.1,30.24,NNW,338,3.0,7.0,49,0.00,,,0.00,WUHU216DAVISVP2,2013-04-26 00:31:00,
2013-04-25 20:37:00,51.5,33.4,30.24,North,360,7.0,10.0,50,0.00,,,0.00,WUHU216DAVISVP2,2013-04-26 00:37:00,
2013-04-25 20:42:00,50.7,36.1,30.24,WNW,283,13.0,18.0,57,0.00,,,0.00,WUHU216DAVISVP2,2013-04-26 00:42:00,
2013-04-25 20:47:00,49.7,38.1,30.25,NW,318,1.0,18.0,64,0.00,,,0.00,WUHU216DAVISVP2,2013-04-26 00:47:00,
2013-04-25 20:52:00,48.8,38.0,30.25,NW,316,4.0,18.0,66,0.00,,,0.00,WUHU216DAVISVP2,2013-04-26 00:52:00,
2013-04-25 20:58:00,48.5,37.8,30.25,NNW,328,3.0,18.0,66,0.00,,,0.00,WUHU216DAVISVP2,2013-04-26 00:58:00,
2013-04-25 21:03:00,48.4,37.7,30.26,NNW,327,1.0,14.0,66,0.00,,,0.00,WUHU216DAVISVP2,2013-04-26 01:03:00,
2013-04-25 21:09:00,48.3,37.6,30.26,NW,315,1.0,10.0,66,0.00,,,0.00,WUHU216DAVISVP2,2013-04-26 01:09:00,
2013-04-25 21:14:00,48.0,37.2,30.26,NNW,339,4.0,6.0,66,0.00,,,0.00,WUHU216DAVISVP2,2013-04-26 01:14:00,
2013-04-25 21:19:00,47.6,35.2,30.26,West,269,4.0,9.0,62,0.00,,,0.00,WUHU216DAVISVP2,2013-04-26 01:19:00,
2013-04-25 21:24:00,47.3,35.4,30.26,NW,316,5.0,9.0,63,0.00,,,0.00,WUHU216DAVISVP2,2013-04-26 01:24:00,
2013-04-25 21:29:00,46.9,35.1,30.26,NNW,338,3.0,9.0,63,0.00,,,0.00,WUHU216DAVISVP2,2013-04-26 01:29:00,
2013-04-25 21:34:00,46.5,33.9,30.27,NNW,332,5.0,10.0,61,0.00,,,0.00,WUHU216DAVISVP2,2013-04-26 01:34:00,
2013-04-25 21:39:00,46.2,33.5,30.27,North,358,1.0,10.0,61,0.00,,,0.00,WUHU216DAVISVP2,2013-04-26 01:39:00,
2013-04-25 21:45:00,46.1,33.4,30.27,NW,309,3.0,10.0,61,0.00,,,0.00,WUHU216DAVISVP2,2013-04-26 01:45:00,
2013-04-25 21:50:00,46.0,33.3,30.28,NNE,15,2.0,10.0,61,0.00,,,0.00,WUHU216DAVISVP2,2013-04-26 01:50:00,
2013-04-25 21:55:00,45.8,33.1,30.28,NE,36,2.0,7.0,61,0.00,,,0.00,WUHU216DAVISVP2,2013-04-26 01:55:00,
2013-04-25 22:00:00,45.7,33.1,30.28,North,353,4.0,5.0,61,0.00,,,0.00,WUHU216DAVISVP2,2013-04-26 02:00:00,
2013-04-25 22:06:00,45.8,33.2,30.28,NNW,342,3.0,5.0,61,0.00,,,0.00,WUHU216DAVISVP2,2013-04-26 02:06:00,
2013-04-25 22:11:00,45.8,33.2,30.29,North,6,2.0,6.0,61,0.00,,,0.00,WUHU216DAVISVP2,2013-04-26 02:11:00,
2013-04-25 22:16:00,45.7,32.7,30.29,NW,326,1.0,6.0,60,0.00,,,0.00,WUHU216DAVISVP2,2013-04-26 02:16:00,
2013-04-25 22:21:00,45.7,32.7,30.30,NW,323,3.0,6.0,60,0.00,,,0.00,WUHU216DAVISVP2,2013-04-26 02:21:00,
2013-04-25 22:26:00,45.8,32.8,30.30,NNW,333,4.0,5.0,60,0.00,,,0.00,WUHU216DAVISVP2,2013-04-26 02:26:00,
2013-04-25 22:32:00,45.8,32.8,30.30,NNW,328,5.0,7.0,60,0.00,,,0.00,WUHU216DAVISVP2,2013-04-26 02:32:00,
2013-04-25 22:37:00,45.9,33.3,30.30,NW,318,3.0,7.0,61,0.00,,,0.00,WUHU216DAVISVP2,2013-04-26 02:37:00,
2013-04-25 22:42:00,46.0,33.8,30.30,WNW,295,5.0,12.0,62,0.00,,,0.00,WUHU216DAVISVP2,2013-04-26 02:42:00,
2013-04-25 22:48:00,46.0,35.0,30.31,NW,308,6.0,14.0,65,0.00,,,0.00,WUHU216DAVISVP2,2013-04-26 02:48:00,
2013-04-25 22:53:00,45.9,36.0,30.31,NNW,347,5.0,14.0,68,0.00,,,0.00,WUHU216DAVISVP2,2013-04-26 02:53:00,
2013-04-25 22:59:00,45.8,36.7,30.31,NNW,338,4.0,14.0,70,0.00,,,0.00,WUHU216DAVISVP2,2013-04-26 02:59:00,
2013-04-25 23:04:00,45.7,37.3,30.31,NW,321,2.0,12.0,72,0.00,,,0.00,WUHU216DAVISVP2,2013-04-26 03:04:00,
2013-04-25 23:09:00,45.5,37.8,30.32,NW,318,3.0,12.0,74,0.00,,,0.00,WUHU216DAVISVP2,2013-04-26 03:09:00,
2013-04-25 23:14:00,45.3,38.2,30.32,NNW,329,3.0,12.0,76,0.00,,,0.00,WUHU216DAVISVP2,2013-04-26 03:14:00,
2013-04-25 23:20:00,44.9,38.5,30.32,NNW,338,2.0,12.0,78,0.00,,,0.00,WUHU216DAVISVP2,2013-04-26 03:20:00,
2013-04-25 23:25:00,44.6,38.8,30.32,North,355,3.0,11.0,80,0.00,,,0.00,WUHU216DAVISVP2,2013-04-26 03:25:00,
2013-04-25 23:30:00,44.2,38.4,30.32,NNW,344,1.0,11.0,80,0.00,,,0.00,WUHU216DAVISVP2,2013-04-26 03:30:00,
2013-04-25 23:35:00,44.0,38.6,30.33,NNW,336,2.0,9.0,81,0.00,,,0.00,WUHU216DAVISVP2,2013-04-26 03:35:00,
2013-04-25 23:41:00,43.7,38.6,30.33,NW,325,1.0,7.0,82,0.01,,,0.01,WUHU216DAVISVP2,2013-04-26 03:41:00,
2013-04-25 23:47:00,43.5,38.7,30.33,North,358,1.0,5.0,83,0.01,,,0.01,WUHU216DAVISVP2,2013-04-26 03:47:00,
2013-04-25 23:52:00,43.3,38.8,30.33,North,352,1.0,4.0,84,0.02,,,0.02,WUHU216DAVISVP2,2013-04-26 03:52:00,
2013-04-25 23:57:00,43.1,38.9,30.33,NNE,30,0.0,2.0,85,0.03,,,0.03,WUHU216DAVISVP2,2013-04-26 03:57:00,